EN

Hourly Weather Airdrie

Today, 25 October, Sunday

Time Temperature Precipitation Wind Pressure Humidity
00:00 +4°C° 0 mm 3 mps 730 mmHg 87%
01:00 +4°C° 0 mm 3 mps 730 mmHg 87%
02:00 +4°C° 0 mm 3 mps 729 mmHg 87%
03:00 +4°C° 0 mm 3 mps 729 mmHg 87%
04:00 +4°C° 0.1 mm 4 mps 729 mmHg 87%
05:00 +4°C° 0.1 mm 4 mps 728 mmHg 87%
06:00 +5°C° 0.1 mm 4 mps 728 mmHg 87%
07:00 +5°C° 0 mm 5 mps 728 mmHg 86%
08:00 +6°C° 0 mm 5 mps 728 mmHg 85%
09:00 +6°C° 0 mm 5 mps 729 mmHg 84%
10:00 +5°C° 0.1 mm 6 mps 729 mmHg 82%
11:00 +7°C° 0.1 mm 6 mps 729 mmHg 80%
12:00 +8°C° 0.1 mm 7 mps 729 mmHg 78%
13:00 +8°C° 0 mm 6 mps 729 mmHg 77%
14:00 +8°C° 0 mm 6 mps 729 mmHg 77%
15:00 +8°C° 0 mm 6 mps 729 mmHg 76%
16:00 +7°C° 0 mm 5 mps 730 mmHg 79%
17:00 +6°C° 0 mm 5 mps 730 mmHg 82%
18:00 +5°C° 0 mm 4 mps 730 mmHg 85%
19:00 +5°C° 0 mm 4 mps 730 mmHg 85%
20:00 +5°C° 0 mm 4 mps 730 mmHg 86%
21:00 +5°C° 0 mm 4 mps 730 mmHg 86%
22:00 +5°C° 0 mm 4 mps 730 mmHg 87%
23:00 +6°C° 0 mm 4 mps 729 mmHg 88%

Tomorrow, 26 October, Monday

Time Temperature Precipitation Wind Pressure Humidity
00:00 +6°C° 0 mm 4 mps 729 mmHg 89%
01:00 +6°C° 0.1 mm 4 mps 729 mmHg 89%
02:00 +6°C° 0.1 mm 4 mps 729 mmHg 90%
03:00 +6°C° 0.1 mm 4 mps 729 mmHg 91%
04:00 +6°C° 0.1 mm 4 mps 729 mmHg 91%
05:00 +6°C° 0.1 mm 4 mps 729 mmHg 91%
06:00 +6°C° 0.1 mm 4 mps 729 mmHg 91%
07:00 +6°C° 0.1 mm 4 mps 729 mmHg 90%
08:00 +7°C° 0.1 mm 3 mps 729 mmHg 90%
09:00 +8°C° 0.1 mm 3 mps 729 mmHg 90%
10:00 +8°C° 0.8 mm 3 mps 730 mmHg 90%
11:00 +8°C° 0.8 mm 3 mps 730 mmHg 90%
12:00 +8°C° 0.8 mm 3 mps 730 mmHg 90%
13:00 +9°C° 0.5 mm 3 mps 731 mmHg 90%
14:00 +9°C° 0.5 mm 2 mps 731 mmHg 89%
15:00 +9°C° 0.5 mm 2 mps 731 mmHg 88%
16:00 +8°C° 0 mm 2 mps 732 mmHg 90%
17:00 +8°C° 0 mm 1 mps 732 mmHg 91%
18:00 +7°C° 0 mm 1 mps 733 mmHg 93%
19:00 +6°C° 0 mm 1 mps 733 mmHg 93%
20:00 +6°C° 0 mm 1 mps 733 mmHg 92%
21:00 +6°C° 0 mm 1 mps 733 mmHg 92%
22:00 +6°C° 0 mm 1 mps 734 mmHg 93%
23:00 +6°C° 0 mm 1 mps 734 mmHg 94%

Day after tomorrow, 27 October, Tuesday

Time Temperature Precipitation Wind Pressure Humidity
00:00 +6°C° 0 mm 1 mps 734 mmHg 94%
01:00 +5°C° 0 mm 1 mps 734 mmHg 95%
02:00 +5°C° 0 mm 1 mps 734 mmHg 95%
03:00 +5°C° 0 mm 1 mps 734 mmHg 96%
04:00 +5°C° 0 mm 1 mps 734 mmHg 96%
05:00 +5°C° 0 mm 1 mps 734 mmHg 96%
06:00 +5°C° 0 mm 1 mps 734 mmHg 96%
07:00 +6°C° 0 mm 1 mps 734 mmHg 96%
08:00 +6°C° 0 mm 2 mps 733 mmHg 95%
09:00 +6°C° 0 mm 2 mps 733 mmHg 94%
10:00 +7°C° 0 mm 2 mps 732 mmHg 90%
11:00 +8°C° 0 mm 3 mps 732 mmHg 86%
12:00 +8°C° 0 mm 4 mps 731 mmHg 82%
13:00 +8°C° 1.3 mm 4 mps 730 mmHg 85%
14:00 +7°C° 1.3 mm 4 mps 729 mmHg 89%
15:00 +7°C° 1.3 mm 4 mps 728 mmHg 92%
16:00 +6°C° 1.6 mm 4 mps 728 mmHg 93%
17:00 +6°C° 1.6 mm 4 mps 728 mmHg 93%
18:00 +6°C° 1.6 mm 5 mps 728 mmHg 93%
19:00 +6°C° 0.4 mm 4 mps 728 mmHg 92%
20:00 +5°C° 0.4 mm 4 mps 728 mmHg 90%
21:00 +5°C° 0.4 mm 4 mps 728 mmHg 88%
22:00 +5°C° 0 mm 4 mps 728 mmHg 88%
23:00 +4°C° 0 mm 3 mps 728 mmHg 88%

28 October, Wednesday

Time Temperature Precipitation Wind Pressure Humidity
00:00 +3°C° 0 mm 3 mps 728 mmHg 89%
01:00 +4°C° 0.3 mm 3 mps 728 mmHg 90%
02:00 +5°C° 0.3 mm 2 mps 727 mmHg 91%
03:00 +6°C° 0.3 mm 2 mps 727 mmHg 92%
04:00 +6°C° 0.1 mm 2 mps 726 mmHg 92%
05:00 +7°C° 0.1 mm 3 mps 726 mmHg 91%
06:00 +7°C° 0.1 mm 3 mps 725 mmHg 91%
07:00 +7°C° 0.2 mm 3 mps 725 mmHg 91%
08:00 +8°C° 0.2 mm 3 mps 725 mmHg 90%
09:00 +8°C° 0.2 mm 3 mps 724 mmHg 90%
10:00 +8°C° 0.2 mm 4 mps 724 mmHg 86%
11:00 +8°C° 0.2 mm 5 mps 723 mmHg 83%
12:00 +9°C° 0.2 mm 6 mps 723 mmHg 79%
13:00 +9°C° 0.4 mm 5 mps 722 mmHg 82%
14:00 +8°C° 0.4 mm 5 mps 721 mmHg 86%
15:00 +8°C° 0.4 mm 4 mps 720 mmHg 90%
16:00 +8°C° 0.2 mm 4 mps 720 mmHg 90%
17:00 +8°C° 0.2 mm 5 mps 719 mmHg 90%
18:00 +8°C° 0.2 mm 5 mps 719 mmHg 90%
19:00 +8°C° 0.8 mm 5 mps 720 mmHg 92%
20:00 +7°C° 0.8 mm 5 mps 721 mmHg 93%
21:00 +7°C° 0.8 mm 5 mps 722 mmHg 94%
22:00 +7°C° 0.5 mm 6 mps 723 mmHg 92%
23:00 +7°C° 0.5 mm 6 mps 724 mmHg 89%

29 October, Thursday

Time Temperature Precipitation Wind Pressure Humidity
00:00 +7°C° 0.5 mm 6 mps 726 mmHg 86%
01:00 +7°C° 0 mm 6 mps 727 mmHg 88%
02:00 +7°C° 0 mm 5 mps 728 mmHg 89%
03:00 +6°C° 0 mm 5 mps 730 mmHg 90%
04:00 +6°C° 0 mm 5 mps 730 mmHg 90%
05:00 +6°C° 0 mm 5 mps 731 mmHg 90%
06:00 +6°C° 0 mm 5 mps 732 mmHg 91%
07:00 +6°C° 0.4 mm 4 mps 731 mmHg 90%
08:00 +6°C° 0.4 mm 4 mps 731 mmHg 90%
09:00 +6°C° 0.4 mm 4 mps 730 mmHg 89%
10:00 +7°C° 0.9 mm 4 mps 730 mmHg 89%
11:00 +8°C° 0.9 mm 4 mps 730 mmHg 89%
12:00 +8°C° 0.9 mm 4 mps 730 mmHg 89%
13:00 +9°C° 0.2 mm 5 mps 730 mmHg 87%
14:00 +9°C° 0.2 mm 5 mps 730 mmHg 84%
15:00 +9°C° 0.2 mm 5 mps 730 mmHg 82%
16:00 +9°C° 0.2 mm 6 mps 730 mmHg 82%
17:00 +8°C° 0.2 mm 7 mps 730 mmHg 83%
18:00 +8°C° 0.2 mm 7 mps 731 mmHg 83%
19:00 +8°C° 0.2 mm 7 mps 731 mmHg 83%
20:00 +8°C° 0.2 mm 7 mps 732 mmHg 84%
21:00 +8°C° 0.2 mm 7 mps 732 mmHg 84%
22:00 +8°C° 0.3 mm 7 mps 733 mmHg 84%
23:00 +6°C° 0.3 mm 7 mps 734 mmHg 84%

30 October, Friday

Time Temperature Precipitation Wind Pressure Humidity
00:00 +6°C° 0.3 mm 7 mps 735 mmHg 84%
01:00 +7°C° 0.2 mm 6 mps 735 mmHg 84%
02:00 +5°C° 0.2 mm 6 mps 736 mmHg 84%
03:00 +5°C° 0.2 mm 6 mps 737 mmHg 85%
04:00 +5°C° 0.1 mm 5 mps 737 mmHg 84%
05:00 +5°C° 0.1 mm 5 mps 738 mmHg 83%
06:00 +3°C° 0.1 mm 5 mps 739 mmHg 83%
07:00 +4°C° 0 mm 4 mps 739 mmHg 83%
08:00 +5°C° 0 mm 4 mps 740 mmHg 82%
09:00 +5°C° 0 mm 4 mps 741 mmHg 82%
10:00 +6°C° 0.1 mm 5 mps 741 mmHg 79%
11:00 +6°C° 0.1 mm 5 mps 742 mmHg 76%
12:00 +7°C° 0.1 mm 6 mps 742 mmHg 73%
13:00 +7°C° 0.1 mm 5 mps 742 mmHg 74%
14:00 +6°C° 0.1 mm 4 mps 742 mmHg 75%
15:00 +6°C° 0.1 mm 4 mps 743 mmHg 76%
16:00 +5°C° 0 mm 3 mps 742 mmHg 79%
17:00 +4°C° 0 mm 3 mps 742 mmHg 82%
18:00 +5°C° 0 mm 2 mps 742 mmHg 86%
19:00 +4°C° 0 mm 2 mps 742 mmHg 86%
20:00 +4°C° 0 mm 2 mps 742 mmHg 86%
21:00 +5°C° 0 mm 1 mps 742 mmHg 85%
22:00 +5°C° 0 mm 1 mps 742 mmHg 85%
23:00 +5°C° 0 mm 1 mps 742 mmHg 85%
Show more